Regional Weather Roundup
Issued by NWS

Home | Current Version | Previous Version | Graphics & Text | Print | Product List | Glossary On
Versions: 1 2 3 4 5 6 7 8 9 10 11 12 13 14 15 16 17 18 19 20 21 22 23 24 25 26 27 28 29 30 31 32 33 34 35 36 37 38 39 40 41 42 43 44 45 46 47 48 49 50
000
ASUS45 KBOU 180910
RWRCO

WEATHER ROUNDUP FOR COLORADO
NATIONAL WEATHER SERVICE DENVER/BOULDER CO
200 AM MST THU JAN 18 2018

NOTE: "FAIR" INDICATES FEW OR NO CLOUDS BELOW 12000 FEET WITH NO
SIGNIFICANT WEATHER AND/OR OBSTRUCTIONS TO VISIBILITY.

COZ001>005-013-030-031-181000-
...NORTHWEST COLORADO...

CITY           SKY/WX    TMP DP  RH WIND       PRES   REMARKS
CRAIG          FAIR      10   4  76 CALM      30.36F
HAYDEN         FAIR     N/A N/A N/A E16       30.36F
MEEKER         FAIR      20  15  81 E6        30.35F WCI  12
RABBIT EARS PA FAIR      19  18  93 W8        30.33S WCI   9
STEAMBOAT SPGS FAIR      10   8  91 CALM      30.37S
WALDEN         FAIR      14   9  79 S9        30.34S WCI   2
$$

COZ006>008-011-181000-
...WEST CENTRAL VALLEYS...

CITY           SKY/WX    TMP DP  RH WIND       PRES   REMARKS
GRAND JUNCTION FAIR      25  15  66 SE12      30.36F WCI  14
MONTROSE       FAIR      20  11  68 SE9       30.40S WCI   9
EAGLE          FAIR      11   5  77 CALM      30.44S
RIFLE          FAIR      20  14  77 SE3       30.39S
DELTA          FAIR      24  13  64 CALM      30.40S
NUCLA          NOT AVBL
$$

COZ017>023-064>068-181000-
...SOUTHWEST COLORADO...

CITY           SKY/WX    TMP DP  RH WIND       PRES   REMARKS
DURANGO        FAIR      15  13  91 NE5       30.33S WCI   8
CORTEZ         FAIR      16  14  92 CALM      30.34F
PAGOSA SPRINGS FAIR      19  15  82 CALM      30.34S
TELLURIDE      FAIR      22   5  47 SE7       30.37F WCI  14
WOLF CREEK PAS NOT AVBL
$$

COZ009-010-012-014-032>034-037-058>063-181000-
...CENTRAL COLORADO...

CITY           SKY/WX    TMP DP  RH WIND       PRES   REMARKS
ASPEN          FAIR      18   8  65 S9        30.36F WCI   7
BUENA VISTA    FAIR      26  10  51 W8G16     30.29F WCI  18
COPPER MTN     NOT AVBL
BERTHOUD PASS  FAIR      12   1  62 NW30      30.32F WCI  -9
COTTONWOOD PAS   N/A     34   9  35 NW5       30.30F WCI  30
GUNNISON       FAIR       4  -1  80 E3        30.43R
KREMMLING      FAIR       5   0  78 CALM      30.43F
LEADVILLE      FAIR      15   8  73 NE9       30.34S WCI   3
MONARCH PASS   FAIR      19   5  53 W24       30.45S WCI   2
SALIDA         FAIR      24   6  45 NW3       30.37S
SUNLIGHT       FAIR      23  14  68 W3        30.41F
WILKERSON PASS FAIR      27   0  31 N9G16     30.32S WCI  17
$$

COZ069>075-181000-
...SAN LUIS VALLEY/SANGRE DE CRISTO MOUNTAINS...

CITY           SKY/WX    TMP DP  RH WIND       PRES   REMARKS
ALAMOSA        FAIR       2  -9  60 CALM      30.33R
DEL NORTE      FAIR      22  -1  36 W14       30.32F WCI   9
LA VETA PASS   FAIR      23   1  39 SW26G33     N/A  WCI   6
SAGUACHE       FAIR      25   9  50 NW16      30.32S WCI  12
$$

COZ035-036-038>040-181000-
...NORTHERN COLORADO FRONT RANGE...

CITY           SKY/WX    TMP DP  RH WIND       PRES   REMARKS
DENVER INTL AP FAIR      34   9  35 SW17      30.15F WCI  23
DMNS CITY PARK NOT AVBL
AURORA         CLEAR     30   8  38 S9        30.16F WCI  22
FRONT RANGE AP FAIR      34  13  42 S9        30.16S WCI  26
ERIE MUNI ARPT FAIR      19  13  76 S3        30.22S
BOULDER MUN AP FAIR      28  18  64 S6        30.15F WCI  22
CENTENNIAL     FAIR      30   9  41 S8        30.16F WCI  22
BROOMFIELD     FAIR      34  10  37 CALM      30.16F
FORT COLLINS   FAIR      20  14  77 S3        30.16F
LONGMONT       FAIR      22  13  69 CALM      30.18F
$$

COZ041-046-047-076>085-087-088-181000-
...PIKES PEAK/PALMER DIVIDE AND SOUTHERN FOOTHILLS...

CITY           SKY/WX    TMP DP  RH WIND       PRES   REMARKS
COLO. SPRINGS  FAIR      24   4  42 NE7       30.20F WCI  16
A. F. ACADEMY  FAIR      19   4  53 N12       30.19F WCI   6
SCHRIEVER AFB  FAIR      24   5  44 CALM      30.21F
CHEYENNE MTN   FAIR      36   3  24 NW3       30.14F
ELLICOTT         N/A    N/A N/A N/A NE5       30.19F
FALCON         FAIR      24   3  40 NW5       30.21F WCI  18
FORT CARSON    FAIR      24   6  45 NW10      30.18F WCI  14
LIMON          FAIR      14   8  77 N3        30.18F
MONUMENT HILL  FAIR      30   7  37 SW12      30.21F WCI  21
CANON CITY     FAIR      36   1  23 W14       30.19F
WALSENBURG     FAIR      34   5  29 W13       30.21S WCI  25
TRINIDAD       FAIR      23   5  46 W12       30.23S WCI  12
$$

COZ042>045-048>051-090-091-181000-
...NORTHEAST COLORADO...

CITY           SKY/WX    TMP DP  RH WIND       PRES   REMARKS
GREELEY ARPT   FAIR      17  10  74 W3        30.17F
AKRON          FAIR      24  14  65 W9        30.14F WCI  14
BURLINGTON     FAIR      19   8  62 W8        30.18S WCI   9
WRAY           FAIR      18  14  86 W6        30.16F WCI   9
YUMA           FAIR      23  14  68 W12       30.14F WCI  12
STERLING       FAIR      16  12  86 SW10      30.15F WCI   3
HOLYOKE        FAIR      25  19  80 W8        30.14F WCI  16
FORT MORGAN    FAIR      18  13  80 W9        30.16F WCI   7
$$

COZ086-089-092>099-181000-
...SOUTHEAST COLORADO...

CITY           SKY/WX    TMP DP  RH WIND       PRES   REMARKS
PUEBLO         FAIR      16   7  67 CALM      30.21F
LA JUNTA       FAIR      21  11  65 W7        30.21F WCI  12
LAMAR          FAIR      16   8  71 SW8       30.20S WCI   5
SPRINGFIELD      N/A     21  10  62 W9        30.19S WCI  11
$$



USA.gov is the U.S. government's official web portal to all federal, state and local government web resources and services.